Weather History for Ft. Stewart, GA

Change the Weather History Date:

Tuesday, December 4, 2012

  Actual Average Record
Temperature  
Mean Temperature 62 °F -  
Max Temperature 73 °F 66 °F 83 °F (1978)
Min Temperature 51 °F 43 °F 25 °F (1989)
Degree Days  
Heating Degree Days 3    
Growing Degree Days 12 (Base 50)    
Moisture  
Dew Point 54 °F    
Average Humidity 96    
Maximum Humidity 100    
Minimum Humidity 55    
Precipitation  
Precipitation 0.00 in - - ()
Sea Level Pressure  
Sea Level Pressure 30.27 in    
Wind  
Wind Speed 0 mph (SSW)    
Max Wind Speed 6 mph    
Max Gust Speed -    
Visibility 4 miles    
Events      
Averages and records for this station are not official NWS values.
T = Trace of Precipitation, MM = Missing Value Source: NWS Daily Summary

Daily Weather History Graph

Daily Weather History Graph

Search for Another Location

Airport:

Trip Planner

Search our weather history database for the weather conditions in past years. The results will help you decide how hot, cold, wet, or windy it might be!

Date:

Astronomy

Dec. 04, 2012 Rise Set
Actual Time 7:11 AM EST 5:21 PM EST
Civil Twilight 6:44 AM EST 5:48 PM EST
Nautical Twilight 6:14 AM EST 6:18 PM EST
Astronomical Twilight 5:44 AM EST 6:48 PM EST
Moon 10:54 PM EST (12/4) 11:16 AM EST (12/4)
Length of Visible Light 11h 03m
Length of Day
10h 10m
Waning Gibbous, 69% of the Moon is Illuminated
Dec 4
Waning Gibbous
Dec 6
Last Quarter
Dec 13
New
Dec 20
First Quarter
Dec 28
Full

Hourly Weather History & Observations

Time (EST) Temp. Dew Point Humidity Pressure Visibility Wind Dir Wind Speed Gust Speed Precip Events Conditions
12:55 AM 52.7 °F 52.7 °F 100% 30.29 in 6.0 mi Calm Calm - N/A   Clear
1:00 AM 53.6 °F 53.6 °F 100% 30.28 in 2.5 mi Calm Calm - N/A   Clear
1:01 AM 51.8 °F 51.8 °F 100% 30.28 in 1.5 mi Calm Calm - N/A   Clear
1:02 AM 51.8 °F 51.8 °F 100% 30.29 in 1.2 mi Calm Calm - N/A   Clear
1:04 AM 51.8 °F 51.8 °F 100% 30.29 in 1.0 mi Calm Calm - N/A   Clear
1:05 AM 51.8 °F 51.8 °F 100% 30.29 in 0.8 mi Calm Calm - N/A   Clear
1:07 AM 51.8 °F 51.8 °F 100% 30.29 in 0.8 mi Calm Calm - N/A   Clear
1:18 AM 51.8 °F 51.8 °F 100% 30.28 in 1.0 mi Calm Calm - N/A   Clear
1:19 AM 51.8 °F 51.8 °F 100% 30.28 in 1.2 mi Calm Calm - N/A   Clear
1:21 AM 51.8 °F 51.8 °F 100% 30.28 in 1.8 mi Calm Calm - N/A   Clear
1:23 AM 51.8 °F 51.8 °F 100% 30.28 in 1.5 mi Calm Calm - N/A   Partly Cloudy
1:24 AM 51.8 °F 51.8 °F 100% 30.28 in 1.2 mi Calm Calm - N/A   Partly Cloudy
1:26 AM 51.8 °F 51.8 °F 100% 30.28 in 1.0 mi Calm Calm - N/A   Partly Cloudy
1:28 AM 51.8 °F 51.8 °F 100% 30.28 in 0.8 mi Calm Calm - N/A   Scattered Clouds
1:35 AM 51.8 °F 51.8 °F 100% 30.28 in 0.8 mi Calm Calm - N/A   Mostly Cloudy
1:36 AM 51.8 °F 51.8 °F 100% 30.28 in 1.0 mi Calm Calm - N/A   Mostly Cloudy
1:37 AM 51.8 °F 51.8 °F 100% 30.28 in 1.2 mi Calm Calm - N/A   Mostly Cloudy
1:38 AM 51.8 °F 51.8 °F 100% 30.28 in 1.5 mi Calm Calm - N/A   Mostly Cloudy
1:39 AM 51.8 °F 51.8 °F 100% 30.28 in 1.8 mi Calm Calm - N/A   Mostly Cloudy
1:40 AM 51.8 °F 51.8 °F 100% 30.28 in 2.0 mi Calm Calm - N/A   Mostly Cloudy
1:42 AM 51.8 °F 51.8 °F 100% 30.28 in 3.0 mi Calm Calm - N/A   Mostly Cloudy
1:55 AM 52.5 °F 52.5 °F 100% 30.29 in 3.0 mi Calm Calm - N/A   Mostly Cloudy
2:55 AM 52.9 °F 52.9 °F 100% 30.28 in 10.0 mi Calm Calm - N/A   Overcast
3:55 AM 54.0 °F 54.0 °F 100% 30.27 in 10.0 mi Calm Calm - N/A   Overcast
4:55 AM 54.9 °F 54.9 °F 100% 30.28 in 10.0 mi Calm Calm - N/A   Overcast
5:55 AM 55.6 °F 55.6 °F 100% 30.29 in 10.0 mi Calm Calm - N/A   Overcast
6:55 AM 56.1 °F 56.1 °F 100% 30.30 in 10.0 mi Calm Calm - N/A   Overcast
7:55 AM 57.2 °F 57.2 °F 100% 30.32 in 10.0 mi Calm Calm - N/A   Overcast
8:55 AM 59.2 °F 59.2 °F 100% 30.34 in 10.0 mi Calm Calm - N/A   Overcast
9:55 AM 62.8 °F 62.8 °F 100% 30.35 in 10.0 mi Calm Calm - N/A   Overcast
10:55 AM 66.9 °F 61.7 °F 83% 30.35 in 10.0 mi Calm Calm - N/A   Overcast
11:55 AM 72.0 °F 60.3 °F 67% 30.32 in 10.0 mi SW 3.5 mph - N/A   Overcast
12:55 PM 72.9 °F 59.5 °F 63% 30.30 in 10.0 mi SW 5.8 mph - N/A   Overcast
1:55 PM 73.4 °F 60.1 °F 63% 30.27 in 10.0 mi Calm Calm - N/A   Overcast
2:55 PM 73.9 °F 56.7 °F 55% 30.26 in 10.0 mi Variable 4.6 mph - N/A   Overcast
3:55 PM 73.8 °F 58.1 °F 58% 30.25 in 10.0 mi SSE 3.5 mph - N/A   Overcast
4:55 PM 70.9 °F 59.5 °F 67% 30.26 in 10.0 mi Calm Calm - N/A   Clear
5:55 PM 64.6 °F 59.7 °F 84% 30.26 in 10.0 mi Calm Calm - N/A   Clear
6:55 PM 61.0 °F 58.6 °F 92% 30.26 in 10.0 mi Calm Calm - N/A   Clear
7:55 PM 57.7 °F 57.7 °F 100% 30.26 in 5.0 mi Calm Calm - N/A   Clear
8:55 PM 55.0 °F 55.0 °F 100% 30.26 in 10.0 mi Calm Calm - N/A   Clear
9:55 PM 54.7 °F 54.7 °F 100% 30.26 in 3.0 mi Calm Calm - N/A   Clear
9:56 PM 55.4 °F 55.4 °F 100% 30.26 in 3.0 mi Calm Calm - N/A   Clear
10:10 PM 53.6 °F 53.6 °F 100% 30.26 in 2.5 mi Calm Calm - N/A   Clear
10:13 PM 55.4 °F 55.4 °F 100% 30.26 in 1.8 mi Calm Calm - N/A   Clear
10:14 PM 55.4 °F 55.4 °F 100% 30.26 in 1.5 mi Calm Calm - N/A   Clear
10:15 PM 55.4 °F 55.4 °F 100% 30.26 in 1.2 mi Calm Calm - N/A   Clear
10:16 PM 55.4 °F 55.4 °F 100% 30.26 in 1.0 mi Calm Calm - N/A   Clear
10:17 PM 53.6 °F 53.6 °F 100% 30.26 in 0.8 mi Calm Calm - N/A   Clear
10:21 PM 53.6 °F 53.6 °F 100% 30.26 in 1.0 mi Calm Calm - N/A   Clear
10:22 PM 53.6 °F 53.6 °F 100% 30.26 in 1.0 mi Calm Calm - N/A   Clear
10:25 PM 53.6 °F 53.6 °F 100% 30.26 in 1.2 mi Calm Calm - N/A   Clear
10:30 PM 53.6 °F 53.6 °F 100% 30.26 in 1.0 mi Calm Calm - N/A   Clear
10:32 PM 53.6 °F 53.6 °F 100% 30.26 in 0.8 mi Calm Calm - N/A   Clear
10:33 PM 53.6 °F 53.6 °F 100% 30.25 in 0.8 mi Calm Calm - N/A   Clear
10:34 PM 53.6 °F 53.6 °F 100% 30.25 in 0.8 mi Calm Calm - N/A   Clear
10:37 PM 53.6 °F 53.6 °F 100% 30.26 in 1.0 mi Calm Calm - N/A   Clear
10:42 PM 53.6 °F 53.6 °F 100% 30.26 in 1.2 mi Calm Calm - N/A   Clear
10:45 PM 53.6 °F 53.6 °F 100% 30.25 in 1.0 mi Calm Calm - N/A   Clear
10:47 PM 53.6 °F 53.6 °F 100% 30.26 in 1.2 mi Calm Calm - N/A   Clear
10:48 PM 53.6 °F 53.6 °F 100% 30.26 in 1.2 mi Calm Calm - N/A   Clear
10:49 PM 53.6 °F 53.6 °F 100% 30.26 in 1.5 mi Calm Calm - N/A   Clear
10:50 PM 51.8 °F 51.8 °F 100% 30.26 in 1.2 mi Calm Calm - N/A   Clear
10:51 PM 51.8 °F 51.8 °F 100% 30.25 in 1.0 mi Calm Calm - N/A   Clear
10:53 PM 51.8 °F 51.8 °F 100% 30.25 in 0.8 mi Calm Calm - N/A   Clear
10:55 PM 52.3 °F 52.3 °F 100% 30.25 in 0.8 mi Calm Calm - N/A   Clear
10:58 PM 51.8 °F 51.8 °F 100% 30.25 in 0.8 mi Calm Calm - N/A   Clear
10:59 PM 51.8 °F 51.8 °F 100% 30.26 in 0.8 mi Calm Calm - N/A   Clear
11:00 PM 51.8 °F 51.8 °F 100% 30.26 in 0.8 mi Calm Calm - N/A   Clear
11:01 PM 51.8 °F 51.8 °F 100% 30.26 in 1.0 mi Calm Calm - N/A   Clear
11:03 PM 51.8 °F 51.8 °F 100% 30.26 in 1.5 mi Calm Calm - N/A   Clear
11:04 PM 51.8 °F 51.8 °F 100% 30.26 in 2.0 mi Calm Calm - N/A   Clear
11:05 PM 51.8 °F 51.8 °F 100% 30.26 in 3.0 mi Calm Calm - N/A   Clear
11:30 PM 51.8 °F 51.8 °F 100% 30.25 in 2.5 mi Calm Calm - N/A   Clear
11:38 PM 51.8 °F 51.8 °F 100% 30.25 in 3.0 mi Calm Calm - N/A   Clear
11:55 PM 51.3 °F 51.3 °F 100% 30.25 in 10.0 mi Calm Calm - N/A   Clear